[[{"header":{"parameterUnit":"m.s-1","parameterCategory":1,"la1":30.2991,"la2":30.254,"lo1":-89.0895,"lo2":-89.0444,"dy":0.0017,"dx":0.0017,"nx":28,"ny":28,"refTime":"2025-01-20T03:00:00:Z","depth":0,"parameterNumber":2,"parameterNumberName":"U-component_of_WINDS"},"data":[0,0,0,0,0,0,0,0,0,0,0,0,0,0,0,0,0,0,0,0,0,0,0,0,0,0,0,0,0,0,0,0,0,0,0,0,0,0,0,0,0,0,0,0,0,0,0,0,0,0,0,0,0,0,0,0,0,0,1.0636,1.0637,0,1.0694,1.0695,1.0696,1.0723,1.0723,1.0723,1.0723,1.0781,1.0782,1.0784,0,0,0,0,0,0,0,0,0,0,0,0,0,1.0548,1.0549,1.0636,1.0637,1.0637,1.0694,1.0695,1.0696,1.0723,1.0723,1.0723,1.0723,1.078,1.0782,1.0784,0,0,0,0,0,0,0,0,0,0,0,0,0,1.0594,1.055,1.0636,1.0658,1.066,1.0694,1.0695,1.0696,1.0723,1.0723,1.0723,1.0723,1.078,1.0782,1.0784,1.08,0,0,1.0792,1.0793,0,0,0,0,0,0,0,0,1.0591,1.0597,1.0654,1.0656,1.0659,1.0701,1.0685,1.0731,1.0723,1.0699,1.0723,1.0723,1.0754,1.0759,1.077,1.0803,1.0805,1.0792,1.0793,1.0794,1.0795,0,0,0,0,0,0,0,1.0588,1.0595,1.0659,1.0655,1.0658,1.0665,1.0671,1.0694,1.0726,1.0701,1.0703,1.071,1.0756,1.0767,1.0771,1.0806,1.0792,1.0794,1.0795,1.0796,1.0857,1.0857,0,0,0,0,0,0,1.0581,1.0592,1.0657,1.0661,1.0624,1.0666,1.0674,1.0688,1.0726,1.0732,1.071,1.0711,1.0763,1.0769,1.0773,1.0795,1.0794,1.0796,1.0798,1.0857,1.0857,1.0857,0,0,0,0,0,0,1.0579,1.0587,1.0655,1.0627,1.0636,1.0668,1.0684,1.0689,1.0701,1.0733,1.0739,1.0716,1.0764,1.077,1.0794,1.0798,1.0798,1.08,1.0856,1.0857,1.0857,1.0839,0,0,0,0,0,0,1.0577,1.0586,1.0592,1.0627,1.0637,1.0674,1.0684,1.069,1.0705,1.0707,1.074,1.0745,1.0764,1.079,1.0796,1.0801,1.0802,1.0856,1.0857,1.0857,1.0839,1.0838,1.0838,0,0,0,0,0,1.0573,1.0584,1.0592,1.06,1.0646,1.0674,1.068,1.0702,1.0705,1.0712,1.0733,1.0744,1.0797,1.0792,1.0799,1.0805,1.0856,1.0857,1.0857,1.0839,1.0838,1.0838,0,0,0,0,0,0,1.0547,1.0589,1.0598,1.062,1.0644,1.0679,1.0687,1.07,1.0722,1.0723,1.0749,1.0756,1.0778,1.0794,1.0788,1.0823,1.0827,1.0829,1.0812,1.0811,1.081,1.0806,1.0803,0,0,0,0,0,1.0545,1.0564,1.0599,1.0615,1.0627,1.0655,1.0668,1.0683,1.0708,1.0718,1.074,1.0764,1.0786,1.0799,1.0821,1.0842,1.085,1.0849,1.0849,1.0848,1.0849,1.0863,1.0863,1.0859,1.0859,1.0859,0,0,1.0538,1.0563,1.0574,1.0611,1.063,1.065,1.0663,1.0683,1.0698,1.0721,1.0745,1.0762,1.079,1.0813,1.0824,1.0827,1.0852,1.0849,1.0848,1.0849,1.0863,1.0863,1.0864,1.0859,1.0859,1.0859,0,0,1.0537,1.0557,1.0574,1.0594,1.0624,1.0644,1.0648,1.0681,1.0694,1.0719,1.0737,1.0755,1.0792,1.0812,1.0826,1.0835,1.0847,1.0842,1.0837,1.085,1.0851,1.0851,1.0855,1.0856,1.0843,1.0843,1.0843,0,1.0525,1.0556,1.058,1.06,1.0616,1.0639,1.0656,1.0674,1.071,1.072,1.0724,1.0772,1.0792,1.082,1.0823,1.0834,1.0839,1.0837,1.0849,1.0849,1.085,1.0854,1.0855,1.0842,1.0842,1.0842,1.0842,0,1.054,1.0561,1.0571,1.0606,1.0623,1.0641,1.0669,1.0684,1.0698,1.0717,1.0743,1.0769,1.0797,1.0805,1.0818,1.0835,1.0836,1.0844,1.0848,1.0849,1.0853,1.0855,1.0841,1.0841,1.0841,1.0841,0,0,1.0522,1.0572,1.0575,1.0592,1.0628,1.0645,1.0665,1.0694,1.0706,1.073,1.0748,1.078,1.0788,1.0805,1.0821,1.0832,1.0839,1.0839,1.084,1.0838,1.086,1.0854,1.0855,1.0847,1.0848,1.0848,1.0858,0,1.0525,1.0562,1.0586,1.0614,1.0634,1.0657,1.0675,1.0699,1.0718,1.0738,1.0759,1.0782,1.079,1.0801,1.0813,1.0835,1.0843,1.0835,1.0864,1.0864,1.0856,1.0857,1.085,1.0858,1.086,1.086,1.086,0,1.0534,1.0559,1.0589,1.0625,1.0634,1.0649,1.0678,1.0698,1.0726,1.0739,1.0759,1.0776,1.0799,1.0803,1.0834,1.0828,1.0842,1.0855,1.0856,1.0859,1.0862,1.086,1.0861,1.0863,1.0863,1.0862,1.0862,0,1.0518,1.056,1.0583,1.0597,1.0639,1.0649,1.0667,1.0696,1.0712,1.0738,1.0749,1.0776,1.0791,1.0812,1.0836,1.0837,1.0866,1.0871,1.0878,1.0877,1.0882,1.0881,1.0885,1.0891,1.0891,1.0891,1.0891,0,1.052,1.0537,1.0577,1.0591,1.0612,1.064,1.0659,1.0679,1.0705,1.0724,1.0745,1.0763,1.0794,1.0815,1.0835,1.0859,1.0865,1.0876,1.0881,1.0874,1.0873,1.0883,1.0883,1.0891,1.0891,1.0891,1.0891,0,1.0505,1.0532,1.056,1.0598,1.0608,1.0622,1.0655,1.067,1.0691,1.0715,1.0722,1.0755,1.0781,1.0808,1.0843,1.0856,1.088,1.0887,1.087,1.0873,1.0878,1.0877,1.0888,1.0891,1.0895,1.0895,1.0895,0,1.0504,1.0518,1.0558,1.0573,1.0591,1.0614,1.0631,1.066,1.0677,1.0712,1.0723,1.0751,1.0775,1.0817,1.0843,1.0871,1.0879,1.0881,1.0883,1.0876,1.0879,1.0878,1.088,1.0879,1.0879,1.0879,1.0879,0,1.0499,1.0512,1.0536,1.0566,1.0586,1.061,1.0635,1.0646,1.068,1.0698,1.0726,1.0745,1.0782,1.081,1.0841,1.086,1.0875,1.0879,1.0881,1.0874,1.0864,1.087,1.0868,1.0878,1.0878,1.0878,1.0878,1.0878,1.0491,1.0505,1.0536,1.0563,1.0585,1.0609,1.0625,1.0649,1.0673,1.0706,1.0722,1.075,1.078,1.0824,1.0842,1.0865,1.0869,1.0873,1.0874,1.0875,1.0873,1.0861,1.0871,1.0871,1.0871,1.0871,1.0871,0,1.0487,1.0509,1.0533,1.0568,1.059,1.0603,1.0633,1.0649,1.0674,1.0701,1.0725,1.0758,1.0786,1.0816,1.0846,1.0858,1.0866,1.0865,1.0864,1.0869,1.0868,1.0862,1.0859,1.0859,1.0859,1.0859,1.0859,1.0859,1.0487,1.0512,1.053,1.0567,1.0589,1.0617,1.0632,1.0655,1.0677,1.0712,1.0736,1.0756,1.0785,1.0817,1.0844,1.0852,1.0862,1.0859,1.0869,1.0868,1.0869,1.0869,1.0864,1.0861,1.0861,1.0869,1.0869,1.0869]},{"header":{"parameterUnit":"m.s-1","parameterCategory":1,"la1":30.2991,"la2":30.254,"lo1":-89.0895,"lo2":-89.0444,"dy":0.0017,"dx":0.0017,"nx":28,"ny":28,"refTime":"2025-01-20T03:00:00:Z","depth":0,"parameterNumber":3,"parameterNumberName":"V-component_of_WINDS"},"data":[0,0,0,0,0,0,0,0,0,0,0,0,0,0,0,0,0,0,0,0,0,0,0,0,0,0,0,0,0,0,0,0,0,0,0,0,0,0,0,0,0,0,0,0,0,0,0,0,0,0,0,0,0,0,0,0,0,0,-8.3663,-8.3665,0,-8.3846,-8.3848,-8.385,-8.3754,-8.375,-8.3745,-8.374,-8.3921,-8.393,-8.3939,0,0,0,0,0,0,0,0,0,0,0,0,0,-8.3228,-8.3236,-8.3663,-8.3665,-8.3668,-8.3845,-8.3848,-8.385,-8.3755,-8.3749,-8.3743,-8.3738,-8.3918,-8.3929,-8.394,0,0,0,0,0,0,0,0,0,0,0,0,0,-8.3414,-8.3239,-8.3663,-8.3642,-8.3642,-8.3845,-8.3848,-8.3851,-8.3756,-8.3749,-8.3742,-8.3735,-8.3914,-8.3928,-8.3942,-8.4174,0,0,-8.3985,-8.3991,0,0,0,0,0,0,0,0,-8.3404,-8.343,-8.3643,-8.3644,-8.3644,-8.377,-8.376,-8.3959,-8.3758,-8.3713,-8.374,-8.3732,-8.3876,-8.3893,-8.3943,-8.4182,-8.419,-8.3986,-8.3994,-8.4,-8.4004,0,0,0,0,0,0,0,-8.3391,-8.3422,-8.3735,-8.3646,-8.3647,-8.3622,-8.364,-8.3798,-8.3833,-8.3716,-8.371,-8.3733,-8.3875,-8.393,-8.3946,-8.4193,-8.3985,-8.3998,-8.4007,-8.4012,-8.4632,-8.464,0,0,0,0,0,0,-8.338,-8.3412,-8.3729,-8.3741,-8.3504,-8.3636,-8.3656,-8.3737,-8.3831,-8.3838,-8.3739,-8.3728,-8.3909,-8.393,-8.3952,-8.4231,-8.4,-8.4013,-8.4021,-8.4624,-8.4634,-8.4642,0,0,0,0,0,0,-8.3371,-8.3409,-8.3722,-8.3575,-8.3612,-8.3651,-8.3742,-8.3744,-8.3799,-8.3848,-8.3853,-8.3789,-8.3904,-8.3933,-8.412,-8.4236,-8.402,-8.4032,-8.4614,-8.4627,-8.4638,-8.479,0,0,0,0,0,0,-8.3359,-8.3406,-8.3496,-8.3577,-8.3621,-8.3889,-8.3749,-8.3753,-8.3824,-8.3811,-8.3896,-8.3903,-8.3901,-8.41,-8.4134,-8.4251,-8.4043,-8.4604,-8.462,-8.4634,-8.4775,-8.4806,-8.4832,0,0,0,0,0,-8.3343,-8.353,-8.3501,-8.354,-8.3734,-8.3896,-8.392,-8.3915,-8.3833,-8.3923,-8.3955,-8.3901,-8.4218,-8.412,-8.4158,-8.4281,-8.4597,-8.4616,-8.4633,-8.4762,-8.48,-8.4832,0,0,0,0,0,0,-8.346,-8.354,-8.3509,-8.3728,-8.3806,-8.3879,-8.3992,-8.3955,-8.4056,-8.404,-8.4027,-8.4048,-8.4243,-8.428,-8.4169,-8.451,-8.4394,-8.4421,-8.4479,-8.4516,-8.4544,-8.4531,-8.4055,0,0,0,0,0,-8.3511,-8.3637,-8.37,-8.3887,-8.3928,-8.3954,-8.4024,-8.4014,-8.4093,-8.4125,-8.417,-8.4248,-8.4365,-8.4442,-8.4552,-8.4779,-8.4796,-8.4883,-8.4911,-8.4935,-8.4958,-8.5081,-8.512,-8.4702,-8.4702,-8.4702,0,0,-8.3618,-8.3678,-8.3758,-8.3912,-8.3971,-8.4101,-8.3982,-8.4124,-8.4219,-8.4145,-8.4326,-8.4362,-8.4448,-8.4656,-8.475,-8.4693,-8.5077,-8.4958,-8.4976,-8.4987,-8.5104,-8.5143,-8.5179,-8.4714,-8.4712,-8.471,0,0,-8.3879,-8.3938,-8.41,-8.4162,-8.4254,-8.427,-8.4309,-8.4389,-8.4411,-8.4592,-8.454,-8.4652,-8.4854,-8.4917,-8.4976,-8.5262,-8.5216,-8.5298,-8.5448,-8.5569,-8.5601,-8.5631,-8.5733,-8.577,-8.5321,-8.5321,-8.5322,0,-8.4,-8.4195,-8.4188,-8.4335,-8.4404,-8.4345,-8.4509,-8.4569,-8.4692,-8.474,-8.4675,-8.4928,-8.4981,-8.5204,-8.5274,-8.5323,-8.5367,-8.5289,-8.5598,-8.5627,-8.5654,-8.5751,-8.579,-8.5331,-8.533,-8.5329,-8.5328,0,-8.4339,-8.4475,-8.4595,-8.4718,-8.48,-8.4955,-8.497,-8.5054,-8.5037,-8.5059,-8.5244,-8.5306,-8.5429,-8.548,-8.5464,-8.5701,-8.5663,-8.5599,-8.5482,-8.5703,-8.5795,-8.5832,-8.5344,-8.5341,-8.5338,-8.5336,0,0,-8.4679,-8.4797,-8.4841,-8.4896,-8.4993,-8.5097,-8.5248,-8.537,-8.5443,-8.5529,-8.5655,-8.5828,-8.5769,-8.5835,-8.5825,-8.5931,-8.6154,-8.5853,-8.5854,-8.5907,-8.642,-8.6469,-8.6512,-8.6124,-8.6131,-8.6136,-8.6413,0,-8.4947,-8.5215,-8.5213,-8.546,-8.5585,-8.5531,-8.5663,-8.5736,-8.5761,-8.587,-8.5896,-8.6019,-8.5932,-8.5972,-8.6074,-8.6106,-8.6257,-8.6085,-8.624,-8.6246,-8.6221,-8.656,-8.6612,-8.687,-8.6448,-8.6455,-8.6459,0,-8.5296,-8.5397,-8.5657,-8.5737,-8.5789,-8.5908,-8.602,-8.6125,-8.6206,-8.6216,-8.6292,-8.6266,-8.6418,-8.6297,-8.6506,-8.639,-8.6452,-8.6478,-8.6487,-8.6502,-8.6366,-8.6584,-8.6952,-8.6991,-8.6515,-8.6511,-8.6507,0,-8.5519,-8.5719,-8.59,-8.5949,-8.6046,-8.6131,-8.6175,-8.625,-8.6323,-8.642,-8.6467,-8.658,-8.6642,-8.6729,-8.6733,-8.6644,-8.6945,-8.6823,-8.6957,-8.6957,-8.7023,-8.7019,-8.7407,-8.7063,-8.7062,-8.7062,-8.7061,0,-8.5819,-8.598,-8.6002,-8.6114,-8.6293,-8.6288,-8.6465,-8.65,-8.6567,-8.6684,-8.6643,-8.6753,-8.6752,-8.6863,-8.6867,-8.704,-8.7068,-8.708,-8.7079,-8.7085,-8.7083,-8.7126,-8.7108,-8.7072,-8.707,-8.7068,-8.7066,0,-8.6098,-8.6119,-8.6314,-8.6391,-8.6414,-8.6542,-8.6607,-8.6713,-8.6734,-8.6882,-8.6917,-8.695,-8.7079,-8.7092,-8.7242,-8.7244,-8.7454,-8.7433,-8.7427,-8.7424,-8.7557,-8.7545,-8.7986,-8.8044,-8.7662,-8.7666,-8.7669,0,-8.6289,-8.6412,-8.6503,-8.6579,-8.6629,-8.6752,-8.6827,-8.6827,-8.6907,-8.701,-8.7103,-8.7229,-8.733,-8.7538,-8.7575,-8.7689,-8.7671,-8.7818,-8.7688,-8.7689,-8.7674,-8.7667,-8.7679,-8.7843,-8.7847,-8.7851,-8.7854,0,-8.6625,-8.663,-8.6741,-8.6857,-8.6949,-8.704,-8.7124,-8.7189,-8.7199,-8.729,-8.7424,-8.7502,-8.7656,-8.7781,-8.7893,-8.7936,-8.7898,-8.7894,-8.7931,-8.7938,-8.793,-8.7937,-8.7497,-8.7884,-8.7881,-8.7879,-8.7877,-8.7876,-8.6866,-8.6973,-8.7055,-8.718,-8.7245,-8.7325,-8.7429,-8.7464,-8.7576,-8.7703,-8.7695,-8.7842,-8.792,-8.8067,-8.8119,-8.8232,-8.8183,-8.8236,-8.825,-8.8263,-8.8278,-8.7912,-8.8252,-8.8252,-8.8251,-8.825,-8.8249,0,-8.7201,-8.7251,-8.7366,-8.7488,-8.7587,-8.7543,-8.7635,-8.772,-8.785,-8.7927,-8.8028,-8.8181,-8.8302,-8.8348,-8.8467,-8.8549,-8.8534,-8.858,-8.8574,-8.8584,-8.8315,-8.8271,-8.859,-8.859,-8.859,-8.859,-8.859,-8.859,-8.7387,-8.7566,-8.7581,-8.7791,-8.7839,-8.7985,-8.8041,-8.8115,-8.8176,-8.835,-8.8451,-8.8482,-8.8546,-8.8669,-8.8778,-8.8788,-8.8833,-8.8888,-8.889,-8.8638,-8.8603,-8.8571,-8.853,-8.8898,-8.8898,-8.9151,-8.9153,-8.9155]}]]